Weather History for Blackwell, OK

Change the Weather History Date:

Tuesday, July 23, 2013

  Actual Average (KPNC) Record (KPNC)
Temperature  
Mean Temperature 88 °F -  
Max Temperature 100 °F 95 °F 107 °F (1954)
Min Temperature 75 °F 67 °F 55 °F (1967)
Cooling Degree Days 22    
Growing Degree Days 38 (Base 50)    
Moisture  
Dew Point 72 °F    
Average Humidity 63    
Maximum Humidity 94    
Minimum Humidity 37    
Precipitation  
Precipitation 0.00 in - - ()
Sea Level Pressure  
Sea Level Pressure 29.84 in    
Wind  
Wind Speed 7 mph (South)    
Max Wind Speed 14 mph    
Max Gust Speed 22 mph    
Visibility 10 miles    
Events      
Averages and records for this station are not official NWS values.
T = Trace of Precipitation, MM = Missing Value Source: NWS Daily Summary

Daily Weather History Graph

Daily Weather History Graph

Search for Another Location

Airport:

Trip Planner

Search our weather history database for the weather conditions in past years. The results will help you decide how hot, cold, wet, or windy it might be!

Date:

Astronomy

Jul. 23, 2013 Rise Set
Actual Time 6:28 AM CDT 8:43 PM CDT
Civil Twilight 5:58 AM CDT 9:12 PM CDT
Nautical Twilight 5:23 AM CDT 9:48 PM CDT
Astronomical Twilight 4:43 AM CDT 10:27 PM CDT
Moon 9:16 PM CDT (7/23) 7:35 AM CDT (7/23)
Length of Visible Light 15h 13m
Length of Day
14h 14m
Full, 99% of the Moon is Illuminated
Jul 23
Full
Jul 29
Last Quarter
Aug 6
New
Aug 14
First Quarter
Aug 20
Full

Hourly Weather History & Observations

Time (CDT) Temp. Heat Index Dew Point Humidity Pressure Visibility Wind Dir Wind Speed Gust Speed Precip Events Conditions
12:15 AM 78.8 °F - 62.6 °F 57% 29.82 in 10.0 mi SSW 9.2 mph - N/A   Partly Cloudy
12:35 AM 77.0 °F - 64.4 °F 65% 29.82 in 10.0 mi SSW 10.4 mph - N/A   Clear
12:55 AM 77.0 °F - 64.4 °F 65% 29.82 in 10.0 mi SW 8.1 mph - N/A   Clear
1:15 AM 75.2 °F - 66.2 °F 73% 29.82 in 10.0 mi South 4.6 mph - N/A   Clear
1:35 AM 77.0 °F - 66.2 °F 69% 29.82 in 10.0 mi South 4.6 mph - N/A   Clear
1:55 AM 75.2 °F - 68.0 °F 78% 29.83 in 10.0 mi Calm Calm - N/A   Clear
2:15 AM 77.0 °F - 69.8 °F 78% 29.83 in 10.0 mi Calm Calm - N/A   Clear
2:35 AM 77.0 °F - 71.6 °F 83% 29.84 in 10.0 mi SSW 5.8 mph - N/A   Clear
2:55 AM 77.0 °F - 73.4 °F 89% 29.84 in 10.0 mi SW 4.6 mph - N/A   Clear
3:15 AM 77.0 °F - 73.4 °F 89% 29.85 in 10.0 mi Calm Calm - N/A   Clear
3:35 AM 77.0 °F - 71.6 °F 83% 29.85 in 10.0 mi WSW 4.6 mph - N/A   Clear
3:55 AM 77.0 °F - 73.4 °F 89% 29.85 in 10.0 mi SW 5.8 mph - N/A   Clear
4:15 AM 75.2 °F - 71.6 °F 89% 29.85 in 10.0 mi SSW 6.9 mph - N/A   Clear
4:35 AM 75.2 °F - 73.4 °F 94% 29.85 in 10.0 mi Calm Calm - N/A   Clear
4:55 AM 75.2 °F - 71.6 °F 89% 29.85 in 10.0 mi Calm Calm - N/A   Clear
5:15 AM 75.2 °F - 71.6 °F 89% 29.85 in 10.0 mi SSW 4.6 mph - N/A   Clear
5:35 AM 75.2 °F - 71.6 °F 89% 29.85 in 10.0 mi SSW 8.1 mph - N/A   Clear
5:55 AM 75.2 °F - 71.6 °F 89% 29.86 in 10.0 mi SSW 3.5 mph - N/A   Clear
6:15 AM 75.2 °F - 71.6 °F 89% 29.86 in 10.0 mi South 5.8 mph - N/A   Clear
6:35 AM 75.2 °F - 71.6 °F 89% 29.86 in 10.0 mi SSW 4.6 mph - N/A   Clear
6:55 AM 75.2 °F - 71.6 °F 89% 29.86 in 10.0 mi SW 3.5 mph - N/A   Clear
7:15 AM 75.2 °F - 71.6 °F 89% 29.88 in 10.0 mi NNW 6.9 mph - N/A   Clear
7:35 AM 75.2 °F - 73.4 °F 94% 29.89 in 10.0 mi Calm Calm - N/A   Clear
7:55 AM 77.0 °F - 73.4 °F 89% 29.88 in 10.0 mi South 6.9 mph - N/A   Clear
8:15 AM 80.6 °F 85.4 °F 73.4 °F 79% 29.88 in 10.0 mi South 8.1 mph - N/A   Clear
8:35 AM 82.4 °F 88.2 °F 73.4 °F 74% 29.88 in 10.0 mi SSW 5.8 mph - N/A   Clear
8:55 AM 84.2 °F 90.9 °F 73.4 °F 70% 29.88 in 10.0 mi SSW 9.2 mph - N/A   Clear
9:15 AM 84.2 °F 90.9 °F 73.4 °F 70% 29.88 in 10.0 mi South 6.9 mph - N/A   Clear
9:35 AM 86.0 °F 93.4 °F 73.4 °F 66% 29.88 in 10.0 mi South 6.9 mph - N/A   Clear
9:55 AM 89.6 °F 98.2 °F 73.4 °F 59% 29.90 in 10.0 mi South 4.6 mph - N/A   Clear
10:15 AM 89.6 °F 98.2 °F 73.4 °F 59% 29.89 in 10.0 mi South 4.6 mph - N/A   Clear
10:35 AM 91.4 °F 98.4 °F 71.6 °F 52% 29.89 in 10.0 mi SSW 4.6 mph - N/A   Clear
10:55 AM 91.4 °F 98.4 °F 71.6 °F 52% 29.89 in 10.0 mi SW 8.1 mph - N/A   Clear
11:15 AM 93.2 °F 100.5 °F 71.6 °F 49% 29.89 in 10.0 mi SSW 10.4 mph - N/A   Clear
11:35 AM 93.2 °F 102.4 °F 73.4 °F 52% 29.89 in 10.0 mi SSW 8.1 mph - N/A   Clear
11:55 AM 95.0 °F 104.5 °F 73.4 °F 49% 29.88 in 10.0 mi SSW 9.2 mph - N/A   Clear
12:15 PM 95.0 °F 104.5 °F 73.4 °F 49% 29.87 in 10.0 mi South 11.5 mph 16.1 mph N/A   Clear
12:35 PM 95.0 °F 104.5 °F 73.4 °F 49% 29.86 in 10.0 mi SSW 13.8 mph 19.6 mph N/A   Clear
12:55 PM 96.8 °F 105.1 °F 71.6 °F 44% 29.85 in 10.0 mi SSW 11.5 mph 16.1 mph N/A   Clear
1:15 PM 98.6 °F 107.7 °F 71.6 °F 42% 29.85 in 8.0 mi SSW 10.4 mph - N/A   Clear
1:35 PM 98.6 °F 107.7 °F 71.6 °F 42% 29.85 in 10.0 mi SSW 12.7 mph 17.3 mph N/A   Clear
1:55 PM 98.6 °F 107.7 °F 71.6 °F 42% 29.85 in 10.0 mi SSW 8.1 mph 18.4 mph N/A   Partly Cloudy
2:15 PM 98.6 °F 105.5 °F 69.8 °F 39% 29.84 in 10.0 mi SSW 8.1 mph - N/A   Scattered Clouds
2:35 PM 98.6 °F 107.7 °F 71.6 °F 42% 29.83 in 10.0 mi South 9.2 mph 16.1 mph N/A   Partly Cloudy
3:15 PM 100.4 °F 107.8 °F 69.8 °F 37% 29.83 in 10.0 mi South 9.2 mph 21.9 mph N/A   Clear
3:35 PM 100.4 °F 109.3 °F 71.6 °F 39% 29.83 in 10.0 mi SSW 10.4 mph 18.4 mph N/A   Mostly Cloudy
3:55 PM 100.4 °F 109.3 °F 71.6 °F 39% 29.82 in 10.0 mi South 11.5 mph - N/A   Scattered Clouds
4:15 PM 98.6 °F 107.7 °F 71.6 °F 42% 29.81 in 10.0 mi South 10.4 mph - N/A   Partly Cloudy
4:35 PM 98.6 °F 107.7 °F 71.6 °F 42% 29.81 in 10.0 mi South 10.4 mph - N/A   Partly Cloudy
4:55 PM 98.6 °F 107.7 °F 71.6 °F 42% 29.80 in 10.0 mi SSE 10.4 mph 18.4 mph N/A   Partly Cloudy
5:15 PM 98.6 °F 107.7 °F 71.6 °F 42% 29.80 in 10.0 mi SSE 12.7 mph 17.3 mph N/A   Partly Cloudy
5:35 PM 98.6 °F 107.7 °F 71.6 °F 42% 29.80 in 10.0 mi South 12.7 mph - N/A   Partly Cloudy
5:55 PM 96.8 °F 105.1 °F 71.6 °F 44% 29.80 in 10.0 mi South 12.7 mph 18.4 mph N/A   Scattered Clouds
6:15 PM 96.8 °F 105.1 °F 71.6 °F 44% 29.78 in 10.0 mi SSE 13.8 mph - N/A   Partly Cloudy
6:35 PM 95.0 °F 103.2 °F 71.6 °F 47% 29.77 in 10.0 mi SSE 12.7 mph - N/A   Clear
6:55 PM 95.0 °F 103.2 °F 71.6 °F 47% 29.77 in 10.0 mi South 12.7 mph 17.3 mph N/A   Clear
7:15 PM 95.0 °F 103.2 °F 71.6 °F 47% 29.76 in 10.0 mi SSE 13.8 mph 17.3 mph N/A   Clear
7:35 PM 93.2 °F 102.4 °F 73.4 °F 52% 29.76 in 10.0 mi SSE 11.5 mph - N/A   Clear
7:55 PM 93.2 °F 102.4 °F 73.4 °F 52% 29.76 in 10.0 mi SSE 8.1 mph - N/A   Clear
8:15 PM 91.4 °F 100.1 °F 73.4 °F 55% 29.77 in 10.0 mi SE 8.1 mph - N/A   Clear
8:35 PM 89.6 °F 98.2 °F 73.4 °F 59% 29.77 in 10.0 mi SSE 9.2 mph - N/A   Clear
8:55 PM 87.8 °F 95.6 °F 73.4 °F 62% 29.76 in 9.0 mi SE 10.4 mph - N/A   Clear
9:15 PM 89.6 °F 98.2 °F 73.4 °F 59% 29.78 in 10.0 mi SE 9.2 mph - N/A   Clear
9:35 PM 87.8 °F 97.6 °F 75.2 °F 66% 29.79 in 10.0 mi SE 10.4 mph - N/A   Scattered Clouds
9:55 PM 89.6 °F 99.8 °F 75.2 °F 62% 29.80 in 10.0 mi SSE 9.2 mph - N/A   Mostly Cloudy
10:15 PM 87.8 °F 97.6 °F 75.2 °F 66% 29.79 in 10.0 mi SE 11.5 mph - N/A   Mostly Cloudy
10:35 PM - - - N/A% - - North - - N/A   Unknown
10:55 PM - - - N/A% - - North - - N/A   Unknown
11:15 PM - - - N/A% - - North - - N/A   Unknown
11:35 PM - - - N/A% - - North - - N/A   Unknown
11:55 PM - - - N/A% - - North - - N/A   Unknown